User: anonymous   Login
Location: Muenchen
(48.1800°N, 11.5800°E)
Time: 14:20:20
(UTC+02:00)
Language:

Tiros 1 - Orbit

View from above orbital plane
View from above orbital plane
View from above satellite
View from above satellite

Ground track
Ground track

The orbit data is extracted from the following two-line orbital elements,

1 00029U 60002B   17266.68385916 -.00000081  00000-0  18955-4 0  9999
2 00029  48.3809 336.8592 0024702 283.6805  76.1356 14.74191719 71435
Epoch (UTC): 23 September 2017 16:24:45
Eccentricity: 0.0024702
inclination: 48.3809°
perigee height: 630 km
apogee height: 665 km
right ascension of ascending node: 336.8592°
argument of perigee: 283.6805°
revolutions per day: 14.74191719
mean anomaly at epoch: 76.1356°
orbit number at epoch: 7143

The dashed part of the orbit path shows where the satellite is in the earth's shadow,  

DLR